FW3260 Weather Reports


Display with metric or nautical units.
time (UTC)temp
F
wind
direction
speed
MPH
gust
MPH
rain 1hr
in
rain 24hr
in
rain mn
in
humidity
%
barometer
mb
20210805015018 66 0.0 1.0 0.00 0.00 0.00 85 1022.3
20210805014518 65 270 1.0 2.0 0.00 0.00 0.00 85 1022.3
20210805014018 65 0.0 1.0 0.00 0.00 0.00 85 1022.3
20210805013518 65 0.0 1.0 0.00 0.00 0.00 85 1022.3
20210805013018 65 0.0 1.0 0.00 0.00 0.00 86 1022.2
20210805012518 65 270 1.0 2.0 0.00 0.00 0.00 86 1022.2
20210805012018 65 0.0 0.0 0.00 0.00 0.00 87 1022.1
20210805011518 65 0.0 1.0 0.00 0.00 0.00 86 1022.0
20210805011018 65 270 1.0 2.0 0.00 0.00 0.00 87 1021.9
20210805010518 65 270 1.0 2.0 0.00 0.00 0.00 87 1021.8
20210805010018 65 270 1.0 2.0 0.00 0.00 0.00 87 1021.9
20210805005518 65 270 1.0 2.0 0.00 0.00 0.00 87 1021.8
20210805005029 65 270 1.0 2.0 0.00 0.00 0.00 87 1021.8
20210805004518 65 270 1.0 2.0 0.00 0.00 0.00 87 1021.8
20210805004018 65 270 1.0 1.0 0.00 0.00 0.00 87 1021.8
20210805003518 65 270 1.0 2.0 0.00 0.00 0.00 87 1021.7
20210805003018 65 270 1.0 2.0 0.00 0.00 0.00 87 1021.6
20210805002518 65 270 1.0 1.0 0.00 0.00 0.00 87 1021.6
20210805002018 66 0.0 1.0 0.00 0.00 0.00 87 1021.6
20210805001518 66 270 1.0 2.0 0.00 0.00 0.00 88 1021.5
20210805001018 66 0 1.0 1.0 0.00 0.00 0.00 86 1021.4
20210805000518 66 0.0 1.0 0.00 0.00 0.00 86 1021.5
20210805000018 67 68 1.0 2.0 0.00 0.00 0.00 85 1021.5
20210804235518 67 0.0 2.0 0.00 0.00 0.00 85 1021.5
20210804235018 67 0.0 1.0 0.00 0.00 0.00 85 1021.5
20210804234518 68 0.0 1.0 0.00 0.00 0.00 85 1021.5
20210804234018 68 0.0 1.0 0.00 0.00 0.00 83 1021.5
20210804233518 68 0.0 1.0 0.00 0.00 0.00 81 1021.5
20210804233018 68 0.0 0.0 0.00 0.00 0.00 81 1021.6
20210804232518 69 0.0 1.0 0.00 0.00 0.00 80 1021.6
20210804232018 69 0.0 1.0 0.00 0.00 0.00 81 1021.5
20210804231519 69 0.0 1.0 0.00 0.00 0.00 81 1021.5
20210804231018 69 0.0 2.0 0.00 0.00 0.00 82 1021.4
20210804230518 69 45 1.0 2.0 0.00 0.00 0.00 81 1021.3
20210804230018 69 68 1.0 4.0 0.00 0.00 0.00 81 1021.3
20210804225518 69 45 1.0 2.0 0.00 0.00 0.00 83 1021.3
20210804225018 70 68 1.0 2.0 0.00 0.00 0.00 82 1021.3
20210804224518 70 0.0 2.0 0.00 0.00 0.00 77 1021.3
20210804224018 70 90 1.0 3.0 0.00 0.00 0.00 78 1021.3
20210804223518 71 135 1.0 2.0 0.00 0.00 0.00 78 1021.4
20210804223018 71 113 1.0 3.0 0.00 0.00 0.00 78 1021.5
20210804222518 71 158 1.0 3.0 0.00 0.00 0.00 77 1021.6
20210804222018 71 135 1.0 2.0 0.00 0.00 0.00 78 1021.6
20210804221518 71 135 1.0 2.0 0.00 0.00 0.00 76 1021.6
20210804221018 71 135 1.0 3.0 0.00 0.00 0.00 75 1021.7
20210804220518 71 0.0 3.0 0.00 0.00 0.00 75 1021.8
20210804220018 71 0.0 2.0 0.00 0.00 0.00 76 1021.8
20210804215518 71 0.0 2.0 0.00 0.00 0.00 75 1021.8
20210804215018 71 0.0 1.0 0.00 0.00 0.00 73 1021.8
20210804214517 71 315 1.0 2.0 0.00 0.00 0.00 73 1021.8
20210804214018 71 0.0 2.0 0.00 0.00 0.00 72 1021.8
20210804213518 71 135 1.0 3.0 0.00 0.00 0.00 71 1021.8
20210804213018 71 0.0 1.0 0.00 0.00 0.00 71 1021.8
20210804212517 71 135 1.0 3.0 0.00 0.00 0.00 73 1021.7
20210804212017 71 135 1.0 3.0 0.00 0.00 0.00 72 1021.7
20210804211518 71 135 1.0 3.0 0.00 0.00 0.00 75 1021.7
20210804211018 72 0.0 1.0 0.00 0.00 0.00 76 1021.6
20210804210517 72 0.0 2.0 0.00 0.00 0.00 80 1021.6
20210804210017 71 0.0 2.0 0.00 0.00 0.00 81 1021.5
20210804205518 71 0.0 1.0 0.00 0.00 0.00 80 1021.6
20210804205018 71 0.0 1.0 0.00 0.00 0.00 80 1021.7
20210804204518 71 0.0 1.0 0.00 0.00 0.00 80 1021.7
20210804204017 71 0.0 2.0 0.00 0.00 0.00 79 1021.7
20210804203517 71 0.0 1.0 0.00 0.00 0.00 81 1021.9
20210804203018 71 0.0 1.0 0.00 0.00 0.00 77 1021.9
20210804202517 71 270 1.0 2.0 0.00 0.00 0.00 75 1021.9
20210804202017 72 270 1.0 2.0 0.00 0.00 0.00 75 1021.9
20210804201518 72 270 1.0 3.0 0.00 0.00 0.00 74 1021.8
20210804201017 72 0.0 2.0 0.00 0.00 0.00 72 1021.8
20210804200517 73 0.0 2.0 0.00 0.00 0.00 72 1021.8
20210804200017 73 270 1.0 3.0 0.00 0.00 0.00 70 1021.9
20210804195517 73 135 1.0 2.0 0.00 0.00 0.00 70 1021.9
20210804195018 73 135 1.0 2.0 0.00 0.00 0.00 69 1021.9
20210804194517 73 135 1.0 3.0 0.00 0.00 0.00 74 1022.0
20210804194017 73 135 1.0 2.0 0.00 0.00 0.00 72 1022.0
20210804193517 73 135 1.0 3.0 0.00 0.00 0.00 72 1022.0
20210804193017 73 203 1.0 2.0 0.00 0.00 0.00 71 1022.0
20210804192517 73 0.0 1.0 0.00 0.00 0.00 71 1022.0
20210804192017 73 0.0 2.0 0.00 0.00 0.00 69 1021.9
20210804191517 74 135 1.0 2.0 0.00 0.00 0.00 70 1022.0
20210804191017 73 0.0 2.0 0.00 0.00 0.00 71 1022.0
20210804190517 74 113 1.0 2.0 0.00 0.00 0.00 70 1022.0
20210804190017 73 113 1.0 3.0 0.00 0.00 0.00 72 1022.1
20210804185517 74 0.0 1.0 0.00 0.00 0.00 70 1022.0
20210804185017 73 0.0 2.0 0.00 0.00 0.00 70 1022.1
20210804184517 73 0.0 2.0 0.00 0.00 0.00 66 1022.1
20210804184017 74 23 1.0 2.0 0.00 0.00 0.00 69 1022.0
20210804183518 73 90 1.0 5.0 0.00 0.00 0.00 73 1022.0
20210804183017 73 180 1.0 2.0 0.00 0.00 0.00 71 1021.9
20210804182517 73 158 1.0 3.0 0.00 0.00 0.00 73 1021.9
20210804182018 74 0.0 2.0 0.00 0.00 0.00 72 1022.0
20210804181517 74 68 1.0 3.0 0.00 0.00 0.00 70 1022.0
20210804181017 73 45 2.0 3.0 0.00 0.00 0.00 69 1022.1
20210804180517 74 23 2.0 4.0 0.00 0.00 0.00 70 1022.1
20210804180017 73 23 1.0 3.0 0.00 0.00 0.00 69 1022.1
20210804175517 74 68 1.0 4.0 0.00 0.00 0.00 69 1022.0
20210804175017 73 180 1.0 3.0 0.00 0.00 0.00 75 1022.0
20210804174517 73 180 1.0 2.0 0.00 0.00 0.00 77 1022.0
20210804174017 73 23 1.0 4.0 0.00 0.00 0.00 71 1022.0
20210804173517 73 270 1.0 3.0 0.00 0.00 0.00 73 1022.1
20210804173017 72 45 2.0 4.0 0.00 0.00 0.00 70 1022.2
20210804172517 73 248 2.0 4.0 0.00 0.00 0.00 72 1022.1
20210804172017 72 248 1.0 4.0 0.00 0.00 0.00 74 1022.1
20210804171517 72 293 1.0 2.0 0.00 0.00 0.00 71 1022.1
20210804171017 71 248 1.0 3.0 0.00 0.00 0.00 72 1022.2
20210804170517 71 45 1.0 4.0 0.00 0.00 0.00 70 1022.2
20210804170017 72 45 1.0 2.0 0.00 0.00 0.00 69 1022.1
20210804165517 72 90 1.0 2.0 0.00 0.00 0.00 72 1022.1
20210804165017 72 45 1.0 2.0 0.00 0.00 0.00 72 1022.0
20210804164517 71 45 1.0 3.0 0.00 0.00 0.00 72 1022.0
20210804164017 71 90 1.0 3.0 0.00 0.00 0.00 74 1022.2
20210804163517 71 68 1.0 4.0 0.00 0.00 0.00 73 1022.3
20210804163017 71 0 1.0 2.0 0.00 0.00 0.00 70 1022.4
20210804162517 71 0.0 2.0 0.00 0.00 0.00 72 1022.5
20210804162017 71 45 1.0 2.0 0.00 0.00 0.00 72 1022.4
20210804161517 71 45 1.0 3.0 0.00 0.00 0.00 74 1022.4
20210804161017 70 68 1.0 3.0 0.00 0.00 0.00 75 1022.3
20210804160517 70 45 1.0 3.0 0.00 0.00 0.00 73 1022.3
20210804160017 70 68 1.0 3.0 0.00 0.00 0.00 73 1022.3
20210804155517 70 113 1.0 3.0 0.00 0.00 0.00 75 1022.4
20210804155017 70 135 1.0 2.0 0.00 0.00 0.00 76 1022.4
20210804154518 70 68 1.0 2.0 0.00 0.00 0.00 74 1022.4
20210804154017 69 0.0 2.0 0.00 0.00 0.00 76 1022.4
20210804153517 69 0.0 2.0 0.00 0.00 0.00 78 1022.4
20210804153017 69 45 1.0 2.0 0.00 0.00 0.00 76 1022.3
20210804152517 69 68 1.0 3.0 0.00 0.00 0.00 80 1022.4
20210804152028 69 45 1.0 3.0 0.00 0.00 0.00 78 1022.3
20210804151517 68 45 1.0 3.0 0.00 0.00 0.00 78 1022.3
20210804151017 68 68 1.0 2.0 0.00 0.00 0.00 77 1022.4
20210804150517 68 68 1.0 2.0 0.00 0.00 0.00 75 1022.4
20210804150017 68 45 1.0 2.0 0.00 0.00 0.00 78 1022.4
20210804145517 68 45 1.0 3.0 0.00 0.00 0.00 77 1022.4
20210804145017 68 68 1.0 2.0 0.00 0.00 0.00 78 1022.4
20210804144517 68 0.0 1.0 0.00 0.00 0.00 79 1022.4
20210804144017 68 68 1.0 2.0 0.00 0.00 0.00 78 1022.3
20210804143517 68 0.0 2.0 0.00 0.00 0.00 78 1022.3
20210804143017 67 45 1.0 3.0 0.00 0.00 0.00 79 1022.3
20210804142517 67 68 1.0 3.0 0.00 0.00 0.00 81 1022.2
20210804142017 67 45 2.0 4.0 0.00 0.00 0.00 80 1022.2
20210804141517 67 68 1.0 3.0 0.00 0.00 0.00 81 1022.1
20210804141017 67 45 2.0 3.0 0.00 0.00 0.00 80 1022.1
20210804140518 67 45 1.0 3.0 0.00 0.00 0.00 84 1022.1
20210804140017 66 68 1.0 3.0 0.00 0.00 0.00 82 1022.1
20210804135528 66 0.0 2.0 0.00 0.00 0.00 84 1022.1
20210804135017 65 45 1.0 2.0 0.00 0.00 0.00 83 1022.1
20210804134518 65 113 1.0 2.0 0.00 0.00 0.00 85 1022.0
20210804134017 65 68 1.0 2.0 0.00 0.00 0.00 87 1022.1
20210804133517 65 90 1.0 2.0 0.00 0.00 0.00 86 1022.1
20210804133017 64 90 1.0 2.0 0.00 0.00 0.00 86 1022.1
20210804132517 64 68 1.0 3.0 0.00 0.00 0.00 85 1022.1
20210804132017 64 45 1.0 2.0 0.00 0.00 0.00 86 1022.2
20210804131517 64 45 1.0 3.0 0.00 0.00 0.00 85 1022.1
20210804131017 63 45 1.0 2.0 0.00 0.00 0.00 86 1022.1
20210804130517 63 45 2.0 3.0 0.00 0.00 0.00 86 1022.2
20210804130017 63 45 1.0 3.0 0.00 0.00 0.00 87 1022.2
20210804125517 63 45 1.0 3.0 0.00 0.00 0.00 87 1022.2
20210804125017 63 0.0 3.0 0.00 0.00 0.00 88 1022.2
20210804124517 63 0.0 3.0 0.00 0.00 0.00 88 1022.0
20210804124017 63 135 1.0 2.0 0.00 0.00 0.00 87 1021.9
20210804123516 63 68 1.0 2.0 0.00 0.00 0.00 87 1021.8
20210804123017 63 0.0 2.0 0.00 0.00 0.00 87 1021.8
20210804122517 62 45 1.0 2.0 0.00 0.00 0.00 89 1021.7
20210804122017 62 0.0 1.0 0.00 0.00 0.00 90 1021.6
20210804121517 62 0.0 2.0 0.00 0.00 0.00 89 1021.7
20210804121017 62 0.0 1.0 0.00 0.00 0.00 88 1021.6
20210804120517 62 315 1.0 2.0 0.00 0.00 0.00 90 1021.5
20210804120016 61 45 1.0 2.0 0.00 0.00 0.00 90 1021.4
20210804115517 61 0.0 2.0 0.00 0.00 0.00 91 1021.4
20210804115016 61 0.0 2.0 0.00 0.00 0.00 92 1021.3
20210804114516 60 0.0 1.0 0.00 0.00 0.00 92 1021.4
20210804114016 61 0.0 1.0 0.00 0.00 0.00 92 1021.4
20210804113517 60 0.0 1.0 0.00 0.00 0.00 92 1021.3
20210804113017 60 0.0 1.0 0.00 0.00 0.00 92 1021.2
20210804112517 60 0.0 1.0 0.00 0.00 0.00 93 1021.2
20210804112016 60 0.0 1.0 0.00 0.00 0.00 93 1021.2
20210804111517 60 0.0 0.0 0.00 0.00 0.00 92 1021.2
20210804111017 60 0.0 1.0 0.00 0.00 0.00 92 1021.2
20210804110517 60 0.0 1.0 0.00 0.00 0.00 92 1021.1
20210804110018 60 0.0 1.0 0.00 0.00 0.00 93 1021.1
20210804105516 59 0.0 1.0 0.00 0.00 0.00 93 1021.1
20210804105019 59 0.0 1.0 0.00 0.00 0.00 93 1021.1
20210804104518 59 0.0 1.0 0.00 0.00 0.00 93 1021.0
20210804104018 59 0.0 1.0 0.00 0.00 0.00 94 1021.0
20210804103518 59 0.0 1.0 0.00 0.00 0.00 94 1020.9
20210804103018 59 0.0 1.0 0.00 0.00 0.00 94 1020.8
20210804102518 59 0.0 1.0 0.00 0.00 0.00 95 1020.7
20210804102018 58 0.0 0.0 0.00 0.00 0.00 95 1020.7
20210804101519 58 0.0 1.0 0.00 0.00 0.00 94 1020.6
20210804101019 58 0.0 0.0 0.00 0.00 0.00 94 1020.6
20210804100518 58 0.0 1.0 0.00 0.00 0.00 94 1020.6
20210804100018 58 0.0 1.0 0.00 0.00 0.00 95 1020.6
20210804095518 58 0.0 1.0 0.00 0.00 0.00 94 1020.5
20210804095018 58 0.0 1.0 0.00 0.00 0.00 94 1020.4
20210804094518 58 0.0 1.0 0.00 0.00 0.00 94 1020.5
20210804094018 58 0.0 1.0 0.00 0.00 0.00 94 1020.4
20210804093518 58 0.0 0.0 0.00 0.00 0.00 94 1020.3
20210804093018 59 0.0 0.0 0.00 0.00 0.00 94 1020.3
20210804092518 59 0.0 1.0 0.00 0.00 0.00 94 1020.3
20210804092018 59 0.0 0.0 0.00 0.00 0.00 94 1020.3
20210804091518 59 0.0 0.0 0.00 0.00 0.00 93 1020.3
20210804091018 59 0.0 1.0 0.00 0.00 0.00 93 1020.3
20210804090518 59 0.0 1.0 0.00 0.00 0.00 93 1020.3
20210804090018 59 0.0 1.0 0.00 0.00 0.00 93 1020.4
20210804085518 59 0.0 1.0 0.00 0.00 0.00 93 1020.4
20210804085018 59 0.0 1.0 0.00 0.00 0.00 93 1020.4
20210804084518 59 0.0 1.0 0.00 0.00 0.00 94 1020.2
20210804084018 59 0.0 1.0 0.00 0.00 0.00 94 1020.0
20210804083518 59 0.0 1.0 0.00 0.00 0.00 93 1019.9
20210804083018 59 0.0 1.0 0.00 0.00 0.00 93 1019.8
20210804082518 59 0.0 1.0 0.00 0.00 0.00 93 1019.9
20210804082018 59 0.0 0.0 0.00 0.00 0.00 93 1019.9
20210804081518 59 0.0 0.0 0.00 0.00 0.00 93 1019.9
20210804081018 59 0.0 1.0 0.00 0.00 0.00 93 1019.9
20210804080518 59 270 1.0 2.0 0.00 0.00 0.00 92 1019.9
20210804080018 59 0.0 1.0 0.00 0.00 0.00 93 1019.9
20210804075518 59 270 1.0 1.0 0.00 0.00 0.00 93 1019.8
20210804075018 59 0.0 1.0 0.00 0.00 0.00 92 1019.9
20210804074518 59 0.0 1.0 0.00 0.00 0.00 92 1019.8
20210804074018 59 0.0 1.0 0.00 0.00 0.00 92 1019.9
20210804073518 59 263 0.0 0.0 0.00 0.00 0.00 92 1020.0
20210804073018 59 0.0 1.0 0.00 0.00 0.00 91 1020.0
20210804072518 59 0.0 1.0 0.00 0.00 0.00 91 1020.0
20210804072018 59 0.0 1.0 0.00 0.00 0.00 91 1020.0
20210804071518 59 0.0 0.0 0.00 0.00 0.00 91 1019.9
20210804071018 59 0.0 1.0 0.00 0.00 0.00 91 1020.0
20210804070518 59 0.0 1.0 0.00 0.00 0.00 91 1020.1
20210804070018 60 270 1.0 1.0 0.00 0.00 0.00 91 1020.0
20210804065518 60 0.0 1.0 0.00 0.00 0.00 90 1020.0
20210804065018 60 270 1.0 1.0 0.00 0.00 0.00 90 1020.0
20210804064518 60 0.0 1.0 0.00 0.00 0.00 90 1020.1
20210804064018 60 0.0 0.0 0.00 0.00 0.00 90 1020.0
20210804063518 60 0.0 1.0 0.00 0.00 0.00 90 1020.1
20210804063018 60 0.0 1.0 0.00 0.00 0.00 90 1020.0
20210804062518 60 270 1.0 1.0 0.00 0.00 0.00 90 1020.0
20210804062018 60 270 1.0 1.0 0.00 0.00 0.00 90 1019.9
20210804061518 60 0.0 1.0 0.00 0.00 0.00 90 1019.8
20210804061018 60 0.0 0.0 0.00 0.00 0.00 89 1019.8
20210804060518 60 0.0 1.0 0.00 0.00 0.00 89 1019.8
20210804060018 60 270 1.0 2.0 0.00 0.00 0.00 89 1019.8
20210804055518 60 270 1.0 2.0 0.00 0.00 0.00 89 1019.8
20210804055018 60 0.0 2.0 0.00 0.00 0.00 89 1019.8
20210804054518 60 0.0 1.0 0.00 0.00 0.00 89 1019.8
20210804054018 60 0.0 1.0 0.00 0.00 0.00 88 1019.8
20210804053518 60 0.0 1.0 0.00 0.00 0.00 88 1019.8
20210804053018 60 0.0 1.0 0.00 0.00 0.00 88 1019.8
20210804052518 60 270 1.0 1.0 0.00 0.00 0.00 87 1019.8
20210804052018 61 0.0 1.0 0.00 0.00 0.00 87 1019.8
20210804051518 61 0.0 1.0 0.00 0.00 0.00 87 1019.8
20210804051018 61 0.0 1.0 0.00 0.00 0.00 86 1019.9
20210804050518 61 0.0 1.0 0.00 0.00 0.00 86 1019.9
20210804050018 61 270 1.0 1.0 0.00 0.00 0.00 86 1019.9
20210804045518 61 0.0 1.0 0.00 0.00 0.00 86 1020.0
20210804045018 61 0.0 1.0 0.00 0.00 0.00 86 1020.0
20210804044518 61 0.0 1.0 0.00 0.00 0.00 85 1019.9
20210804044018 61 0.0 1.0 0.00 0.00 0.00 85 1020.0
20210804043518 61 0.0 0.0 0.00 0.00 0.00 85 1020.0
20210804043018 62 0.0 1.0 0.00 0.00 0.00 85 1020.1
20210804042518 62 0.0 1.0 0.00 0.00 0.00 86 1020.1
20210804042018 62 270 1.0 1.0 0.00 0.00 0.00 86 1020.1
20210804041518 62 0.0 1.0 0.00 0.00 0.00 86 1020.1
20210804041018 62 0.0 1.0 0.00 0.00 0.00 86 1020.1
20210804040518 62 0.0 1.0 0.00 0.00 0.00 86 1020.1
20210804040018 62 0.0 0.0 0.00 0.00 0.00 86 1020.0
20210804035518 62 0.0 1.0 0.00 0.00 0.00 86 1020.1
20210804035018 62 0.0 0.0 0.00 0.00 0.00 85 1020.1
20210804034518 62 0.0 0.0 0.00 0.00 0.00 84 1020.1
20210804034018 62 0.0 0.0 0.00 0.00 0.00 83 1020.1
20210804033518 63 0.0 0.0 0.00 0.00 0.00 83 1020.0
20210804033018 63 0.0 1.0 0.00 0.00 0.00 82 1020.1
20210804032518 63 0.0 1.0 0.00 0.00 0.00 82 1020.1
20210804032018 63 0.0 1.0 0.00 0.00 0.00 83 1020.1
20210804031518 63 0.0 1.0 0.00 0.00 0.00 82 1020.1
20210804031018 63 0.0 1.0 0.00 0.00 0.00 82 1020.2
20210804030518 63 0.0 1.0 0.00 0.00 0.00 81 1020.1
20210804030018 63 0.0 1.0 0.00 0.00 0.00 81 1020.1
20210804025518 63 0.0 1.0 0.00 0.00 0.00 81 1020.1
20210804025018 63 0.0 1.0 0.00 0.00 0.00 81 1020.0
20210804024518 64 0.0 1.0 0.00 0.00 0.00 81 1020.0
20210804024018 64 0.0 1.0 0.00 0.00 0.00 81 1020.0
20210804023518 64 0.0 1.0 0.00 0.00 0.00 80 1020.0
20210804023018 64 0.0 1.0 0.00 0.00 0.00 80 1020.1
20210804022518 64 0.0 0.0 0.00 0.00 0.00 80 1020.1
20210804022018 64 0.0 1.0 0.00 0.00 0.00 79 1020.1
20210804021518 64 0.0 1.0 0.00 0.00 0.00 78 1020.1
20210804021018 65 270 1.0 2.0 0.00 0.00 0.00 77 1020.1
20210804020518 65 270 1.0 1.0 0.00 0.00 0.00 77 1020.1
20210804020018 65 270 1.0 2.0 0.00 0.00 0.00 77 1020.1
20210804015518 65 270 1.0 2.0 0.00 0.00 0.00 77 1020.1